Location: Worcester
(42.2731°N, 71.8111°W)
Time: 02:26:18
(UTC-04:00)

ISS - Visible Passes

Search period start: 26 May 2018 00:00
Search period end: 05 June 2018 00:00
Orbit: 402 x 407 km, 51.6° (Epoch: 26 May)

Date Brightness Start Highest point End Pass type
(mag) Time Alt. Az. Time Alt. Az. Time Alt. Az.
26 May -0.9 01:27:21 10° NW 01:27:41 12° NW 01:27:41 12° NW visible
26 May -1.2 21:21:02 10° WNW 21:23:40 22° NNW 21:26:18 10° NE visible
26 May -0.8 22:58:53 10° NW 23:01:01 16° N 23:03:08 10° NE visible
27 May -1.4 00:35:15 10° NW 00:36:54 22° NNW 00:36:54 22° NNW visible
27 May -0.8 22:06:24 10° NW 22:08:31 16° N 22:10:38 10° NE visible
27 May -1.6 23:43:09 10° NW 23:45:51 23° NNE 23:46:12 22° NNE visible
28 May -0.9 21:13:45 10° NW 21:16:01 17° N 21:18:17 10° NE visible
28 May -1.2 22:50:59 10° NW 22:53:24 19° NNE 22:55:33 11° NE visible
29 May -1.2 00:27:09 10° NW 00:28:11 18° NW 00:28:11 18° NW visible
29 May -1.0 21:58:44 10° NW 22:00:54 16° N 22:03:05 10° NE visible
29 May -2.2 23:35:01 10° NW 23:37:34 34° N 23:37:34 34° N visible
30 May -1.0 21:06:16 10° NW 21:08:22 16° N 21:10:28 10° NE visible
30 May -1.8 22:42:52 10° NW 22:45:40 25° NNE 22:46:59 19° ENE visible
31 May -1.0 00:19:07 10° WNW 00:19:36 13° WNW 00:19:36 13° WNW visible
31 May -1.4 21:50:42 10° NW 21:53:12 20° NNE 21:55:42 10° ENE visible
31 May -2.5 23:26:51 10° NW 23:29:02 39° NW 23:29:02 39° NW visible
01 Jun -1.2 20:58:25 10° NW 21:00:40 17° N 21:02:55 10° NE visible
01 Jun -2.9 22:34:38 10° NW 22:37:47 42° NNE 22:38:30 36° ENE visible
02 Jun -2.1 21:42:27 10° NW 21:45:21 28° NNE 21:47:59 12° E visible
02 Jun -2.1 23:18:48 10° WNW 23:20:37 28° W 23:20:37 28° W visible
03 Jun -1.7 20:50:16 10° NW 20:52:52 21° NNE 20:55:29 10° ENE visible
03 Jun -4.0 22:26:26 10° NW 22:29:42 89° NNE 22:30:07 66° ESE visible
04 Jun -3.2 21:34:10 10° NW 21:37:22 50° NNE 21:39:39 17° ESE visible
04 Jun -1.5 23:11:07 10° W 23:12:17 16° WSW 23:12:17 16° WSW visible
